Flag Weather past 2 weeks in Offenbach, Hesse, Germany

Now
43 °F

Overcast.


Feels Like: 37 °F
Forecast: 33 / 40 °F
Wind: 10 mph from Northeast

Location: Frankfurt-M-Flughafen Airport

Current Time: Nov 25, 2014 at 9:55:45 PM

Latest Report: Nov 25, 2014 at 9:20 PM


Visibility: N/A

Pressure: 30.18 "Hg

Humidity: 81%

Dew point: 37 °F

Location of OffenbachLocation

Historic Weather in Offenbach — Graph

°F

Offenbach temperature yesterday

Maximum temperature yesterday: 48 °F (at 1:20 PM)
Minimum temperature yesterday: 36 °F (at 11:20 PM)
Average temperature yesterday: 42 °F

Past Weeks' High & Low Weather Summary

 TemperatureHumidityPressure
High54 °F (Nov 14, 12:20 PM)100% (Nov 10, 8:50 PM)30.33 "Hg (Nov 10, 8:50 PM)
Low32 °F (Nov 25, 2:50 AM)66% (Nov 21, 1:20 PM)29.50 "Hg (Nov 16, 5:50 AM)
Average46 °F90%29.94 "Hg
* Reported Nov 10 8:20 PM — Nov 25 8:50 PM, Offenbach, Weather by CustomWeather, © 2014

Note: Actual official high and low records may vary slightly from our data, if they occured in-between our weather recording intervals... More about our weather records

Advertising

Offenbach weather history for previous 24 hours

 ConditionsComfort  
Time TempWeatherWind HumidityBarometerVisibility
8:50 PM
Nov 25
43 °FOvercast.10 mph81%30.18 "HgN/A
8:20 PM43 °FOvercast.8 mph81%30.18 "HgN/A
7:50 PM43 °FOvercast.7 mph81%30.18 "HgN/A
7:20 PM41 °FOvercast.6 mph87%30.18 "HgN/A
6:50 PM43 °FOvercast.7 mph81%30.21 "HgN/A
6:20 PM41 °FOvercast.15 mph87%30.21 "HgN/A
5:50 PM41 °FPassing clouds.7 mph87%30.21 "HgN/A
5:20 PM41 °FPassing clouds.12 mph87%30.21 "HgN/A
4:50 PM41 °FPassing clouds.10 mph87%30.21 "HgN/A
4:20 PM41 °FPartly sunny.10 mph87%30.21 "HgN/A
3:50 PM41 °FScattered clouds.12 mph87%30.21 "HgN/A
3:20 PM41 °FPassing clouds.13 mph87%30.21 "HgN/A
2:50 PM43 °FPassing clouds.10 mph81%30.21 "HgN/A
2:20 PM43 °FPassing clouds.9 mph81%30.21 "HgN/A
1:50 PM41 °FPassing clouds.13 mph87%30.24 "HgN/A
1:20 PM41 °FPassing clouds.13 mph81%30.24 "HgN/A
12:50 PM41 °FPassing clouds.13 mph81%30.24 "HgN/A
12:20 PM41 °FPassing clouds.12 mph81%30.27 "HgN/A
11:50 AM41 °FPassing clouds.13 mph81%30.27 "HgN/A
11:20 AM41 °FPassing clouds.13 mph81%30.27 "HgN/A
10:50 AM41 °FSunny.12 mph87%30.27 "Hg10 mi
10:20 AM39 °FPassing clouds.9 mph87%30.27 "HgN/A
9:50 AM39 °FSunny.8 mph81%30.27 "Hg10 mi
9:20 AM37 °FFog.7 mph87%30.27 "HgN/A
8:50 AM36 °FPassing clouds.7 mph87%30.30 "HgN/A
8:20 AM34 °FSunny.6 mph93%30.30 "Hg10 mi
7:50 AM34 °FClear.8 mph93%30.30 "Hg10 mi
7:20 AM36 °FClear.6 mph87%30.30 "Hg10 mi
6:50 AM34 °FPassing clouds.3 mph93%30.30 "HgN/A
6:20 AM34 °FPassing clouds.6 mph100%30.30 "HgN/A
5:50 AM34 °FPassing clouds.3 mph93%30.30 "HgN/A
5:20 AM32 °FClear.6 mph93%30.30 "Hg10 mi
4:50 AM32 °FClear.3 mph100%30.30 "Hg10 mi
4:20 AM32 °FClear.3 mph93%30.30 "Hg10 mi
3:50 AM32 °FClear.6 mph100%30.30 "Hg10 mi
3:20 AM34 °FClear.5 mph93%30.30 "Hg10 mi
2:50 AM32 °FClear.6 mph100%30.30 "Hg10 mi
2:20 AM34 °FClear.6 mph100%30.30 "Hg10 mi
1:50 AM36 °FClear.5 mph100%30.30 "Hg10 mi
1:20 AM34 °FClear.5 mph100%30.30 "Hg10 mi
12:50 AM36 °FClear.5 mph93%30.33 "Hg10 mi
12:20 AM36 °FClear.6 mph100%30.33 "Hg10 mi
11:50 PM
Nov 24
36 °FClear.5 mph93%30.33 "Hg10 mi
11:20 PM36 °FClear.5 mph100%30.33 "Hg10 mi
10:50 PM37 °FClear.6 mph93%30.33 "Hg10 mi
10:20 PM37 °FClear.5 mph93%30.33 "Hg10 mi
9:50 PM37 °FClear.2 mph93%30.33 "Hg10 mi
9:20 PM39 °FClear.3 mph93%30.33 "Hg10 mi
Weather by CustomWeather, © 2014

See weather overviewHow to use our weather pages